Location: Aalen
(48.8330°N, 10.1000°E)
Time: 05:23:06
(UTC+02:00)

deb Explorer IX - All Passes

Search period start: 06 August 2021 00:00
Search period end: 16 August 2021 00:00
Orbit: 544 x 1093 km, 38.8° (Epoch: 03 August)

Date Brightness Start Highest point End Pass type
(mag) Time Alt. Az. Time Alt. Az. Time Alt. Az.
06 Aug - 12:10:27 10° S 12:12:38 14° SSE 12:14:56 10° SE daylight
06 Aug - 13:54:39 10° SW 13:58:22 25° S 14:02:30 10° ESE daylight
06 Aug - 15:40:30 10° WSW 15:44:23 23° S 15:48:44 10° SE daylight
06 Aug - 17:28:12 10° SW 17:30:20 12° SSW 17:32:36 10° S daylight
07 Aug - 11:46:33 10° S 11:48:33 13° SSE 11:50:39 10° SE daylight
07 Aug - 13:30:42 10° SW 13:34:16 24° S 13:38:12 10° ESE daylight
07 Aug - 15:16:33 10° WSW 15:20:16 22° S 15:24:23 10° SE daylight
07 Aug - 17:04:24 10° SW 17:06:11 12° SSW 17:08:03 10° S daylight
08 Aug - 11:22:38 10° S 11:24:29 13° SSE 11:26:22 10° SE daylight
08 Aug - 13:06:45 10° SW 13:10:10 23° S 13:13:57 10° ESE daylight
08 Aug - 14:52:36 10° WSW 14:56:08 21° S 15:00:03 10° SE daylight
08 Aug - 16:40:42 10° SW 16:42:02 11° SSW 16:43:24 10° SSW daylight
09 Aug - 10:58:42 10° S 11:00:23 12° SSE 11:02:06 10° SE daylight
09 Aug - 12:42:46 10° SW 12:46:05 22° S 12:49:41 10° ESE daylight
09 Aug - 14:28:38 10° WSW 14:32:01 21° S 14:35:43 10° SE daylight
09 Aug - 16:17:13 10° SSW 16:17:53 10° SSW 16:18:33 10° SSW daylight
10 Aug - 10:34:43 10° S 10:36:17 12° SSE 10:37:53 10° SE daylight
10 Aug - 12:18:46 10° SW 12:21:59 21° S 12:25:26 10° SE daylight
10 Aug - 14:04:40 10° WSW 14:07:54 20° S 14:11:24 10° SE daylight
11 Aug - 10:10:42 10° S 10:12:12 12° SSE 10:13:41 10° SE daylight
11 Aug - 11:54:45 10° SW 11:57:54 21° S 12:01:12 10° SE daylight
11 Aug - 13:40:42 10° WSW 13:43:47 19° S 13:47:06 10° SE daylight
12 Aug - 09:46:37 10° S 09:48:05 12° SSE 09:49:33 10° SE daylight
12 Aug - 11:30:43 10° SW 11:33:48 20° S 11:36:59 10° SE daylight
12 Aug - 13:16:42 10° SW 13:19:39 18° S 13:22:48 10° SSE daylight
13 Aug - 09:22:30 10° S 09:23:58 12° SSE 09:25:26 10° SE daylight
13 Aug - 11:06:39 10° SW 11:09:41 20° S 11:12:49 10° SE daylight
13 Aug - 12:52:41 10° SW 12:55:32 18° SSW 12:58:32 10° SSE daylight
14 Aug - 08:58:19 10° S 08:59:50 12° SSE 09:01:21 10° SE daylight
14 Aug - 10:42:33 10° SW 10:45:34 20° S 10:48:38 10° SE daylight
14 Aug - 12:28:39 10° SW 12:31:25 17° SSW 12:34:17 10° SSE daylight
15 Aug - 08:34:05 10° S 08:35:42 12° SSE 08:37:18 10° SE daylight
15 Aug - 10:18:25 10° SW 10:21:28 20° S 10:24:30 10° SE daylight
15 Aug - 12:04:35 10° SW 12:07:17 17° SSW 12:10:04 10° SSE daylight
